Date,TemperatureHighF,TemperatureAvgF,TemperatureLowF,DewpointHighF,DewpointAvgF,DewpointLowF,HumidityHigh,HumidityAvg,HumidityLow,PressureMaxIn,PressureMinIn,WindSpeedMaxMPH,WindSpeedAvgMPH,GustSpeedMaxMPH,PrecipitationSumIn
2013-9-1,73.3,68.0,63.2,66.9,62.2,56.6,93,82,66,29.83,29.58,4,1,8,0.00
2013-9-2,66.7,58.4,52.2,56.8,53.4,50.2,93,84,69,29.95,29.82,2,0,5,0.00
2013-9-3,79.6,61.2,48.7,63.0,55.3,46.8,94,82,50,29.97,29.86,2,0,4,0.00
2013-9-4,86.6,71.0,59.6,72.3,64.3,57.6,93,81,57,29.99,29.87,2,0,4,0.00
2013-9-5,84.8,71.9,61.9,71.1,63.8,56.1,91,76,60,30.05,29.94,2,1,5,0.00
2013-9-6,90.5,76.4,68.4,72.2,68.1,66.0,93,78,50,29.94,29.70,2,0,6,0.02
2013-9-7,90.2,77.8,68.2,74.9,69.4,65.5,92,76,54,29.83,29.69,3,1,4,0.00
2013-9-8,78.8,70.8,65.8,69.4,65.1,61.3,88,82,71,29.87,29.72,3,1,6,0.00
2013-9-9,93.9,77.8,67.6,77.6,70.6,65.2,93,80,53,29.73,29.47,4,1,5,0.07
2013-9-10,81.6,72.8,66.3,71.5,66.7,63.9,93,82,62,29.83,29.59,4,1,8,0.00
2013-9-11,85.2,72.0,63.0,64.9,60.4,53.3,93,70,36,29.91,29.82,5,1,10,0.00
2013-9-12,74.8,63.4,53.9,57.4,51.6,47.3,92,67,43,30.08,29.90,3,1,9,0.00
2013-9-13,72.0,57.7,46.5,51.1,47.5,44.3,93,71,41,30.14,29.95,2,0,4,0.00
2013-9-14,73.0,58.3,49.0,56.8,50.5,45.3,93,77,47,29.96,29.73,2,0,5,0.59
2013-9-15,64.3,57.5,50.2,58.0,54.2,47.3,94,89,77,30.18,29.73,3,1,5,0.35
2013-9-16,68.9,52.9,42.1,51.5,45.9,40.5,94,79,48,30.28,30.12,2,0,5,0.00
2013-9-17,65.0,55.7,46.5,57.3,51.6,44.0,93,86,72,30.13,29.81,2,1,7,0.00
2013-9-18,79.1,67.8,59.3,72.4,64.9,57.3,93,91,80,29.81,29.54,2,0,8,0.03
2013-9-19,75.0,69.3,62.9,70.6,65.9,57.6,93,89,76,29.65,29.49,9,1,24,0.40
2013-9-20,63.7,57.2,49.8,57.3,52.5,47.6,93,85,68,29.80,29.64,4,2,11,0.02
2013-9-21,65.3,52.8,44.6,52.3,47.4,42.8,94,83,57,29.87,29.78,3,0,8,0.00
2013-9-22,75.9,59.6,47.1,59.6,52.2,44.9,93,78,54,29.83,29.71,3,1,8,0.00
2013-9-23,73.8,61.8,52.6,57.6,53.1,49.3,90,74,52,29.81,29.72,3,1,7,0.00
2013-9-24,76.9,61.3,50.9,58.8,53.6,48.3,91,78,50,29.82,29.76,2,1,5,0.00
2013-9-25,75.2,61.4,51.3,57.4,53.5,49.3,93,77,49,29.83,29.72,2,1,5,0.00
2013-9-26,81.5,67.4,56.6,64.7,58.1,51.6,87,73,53,29.77,29.67,3,2,10,0.00
2013-9-27,83.5,72.7,66.7,67.1,63.0,61.1,84,72,54,29.76,29.63,3,1,7,0.00
2013-9-28,71.6,60.6,48.4,63.1,55.5,46.2,93,83,70,29.80,29.47,9,2,15,0.18
2013-9-29,75.8,59.0,46.5,54.8,48.0,43.3,93,70,37,29.83,29.66,3,0,5,0.00
2013-9-30,79.1,66.7,58.2,57.9,52.4,48.0,73,61,44,29.67,29.44,3,1,8,0.00